EW3197 Weather Reports


time (UTC)temp
C
wind
direction
speed
KPH
gust
KPH
rain 1hr
cm
rain 24hr
cm
rain mn
cm
humidity
%
barometer
mb
20260506192704 16 264 1.6 4.8 0.23 0.58 0.58 88 1005.0
20260506192204 16 203 0.0 3.2 0.20 0.56 0.56 88 1005.1
20260506191704 16 204 1.6 3.2 0.23 0.56 0.56 88 1005.1
20260506190704 16 234 0.0 3.2 0.15 0.48 0.48 88 1005.1
20260506190204 16 234 1.6 11.3 0.13 0.46 0.46 87 1005.1
20260506185704 16 176 3.2 4.8 0.10 0.43 0.43 87 1005.1
20260506184204 16 185 1.6 4.8 0.10 0.41 0.41 87 1005.1
20260506183704 16 147 0.0 4.8 0.10 0.38 0.38 87 1005.1
20260506183204 16 164 1.6 4.8 0.10 0.38 0.38 87 1005.1
20260506182204 16 158 1.6 3.2 0.08 0.36 0.36 87 1005.2
20260506181704 16 237 1.6 4.8 0.08 0.33 0.33 87 1005.2
20260506181203 16 289 0.0 3.2 0.08 0.33 0.33 87 1005.3
20260506180704 16 289 0.0 4.8 0.08 0.33 0.33 87 1005.4
20260506175704 16 228 0.0 1.6 0.13 0.33 0.33 87 1005.4
20260506174703 16 239 1.6 3.2 0.15 0.30 0.30 87 1005.5
20260506174204 16 239 0.0 4.8 0.18 0.30 0.30 87 1005.5
20260506173704 16 143 1.6 3.2 0.18 0.28 0.28 87 1005.6
20260506172704 17 141 1.6 4.8 0.23 0.28 0.28 87 1005.4
20260506172204 17 137 0.0 1.6 0.23 0.28 0.28 87 1005.5
20260506171704 17 136 0.0 3.2 0.23 0.25 0.25 87 1005.6
20260506171204 16 135 1.6 3.2 0.23 0.25 0.25 86 1005.7
20260506170704 16 134 0.0 3.2 0.23 0.25 0.25 86 1005.8
20260506170204 16 133 1.6 4.8 0.23 0.23 0.23 86 1005.9
20260506165704 16 214 1.6 4.8 0.20 0.20 0.20 85 1006.2
20260506165204 16 165 1.6 4.8 0.18 0.18 0.18 85 1006.4
20260506164704 16 139 1.6 4.8 0.15 0.15 0.15 85 1006.4
20260506164204 16 139 1.6 4.8 0.13 0.13 0.13 84 1006.6
20260506163705 17 135 1.6 3.2 0.10 0.10 0.10 84 1006.6
20260506163204 17 136 1.6 4.8 0.10 0.10 0.10 83 1006.7
20260506162704 17 216 1.6 4.8 0.05 0.05 0.05 83 1006.6
20260506162204 17 126 0.0 3.2 0.05 0.05 0.05 82 1006.5
20260506161205 17 127 1.6 8.0 0.03 0.03 0.03 81 1006.6
20260506160203 17 136 1.6 4.8 0.00 0.00 0.00 80 1006.8
20260506155704 17 160 1.6 4.8 0.00 0.00 0.00 79 1006.8
20260506154705 17 103 1.6 11.3 0.00 0.00 0.00 79 1006.9
20260506154204 17 194 1.6 11.3 0.00 0.00 0.00 79 1006.9
20260506153704 18 127 1.6 4.8 0.00 0.00 0.00 78 1006.8
20260506153204 18 156 1.6 3.2 0.00 0.00 0.00 78 1006.8
20260506152204 18 236 1.6 4.8 0.00 0.00 0.00 76 1006.9
20260506151203 18 142 1.6 3.2 0.00 0.00 0.00 74 1007.1
20260506150704 18 147 1.6 3.2 0.00 0.00 0.00 74 1007.0
20260506150205 18 140 1.6 4.8 0.00 0.00 0.00 74 1007.1
20260506145704 18 131 1.6 4.8 0.00 0.00 0.00 74 1007.2
20260506145205 18 124 1.6 4.8 0.00 0.00 0.00 74 1007.3
20260506144204 18 121 1.6 11.3 0.00 0.00 0.00 73 1007.4
20260506143704 18 149 1.6 4.8 0.00 0.00 0.00 74 1007.4
20260506143203 18 224 1.6 3.2 0.00 0.00 0.00 74 1007.4
20260506142705 18 198 1.6 3.2 0.00 0.00 0.00 74 1007.4
20260506141704 18 149 3.2 9.7 0.00 0.00 0.00 73 1007.3
20260506141205 18 156 1.6 11.3 0.00 0.00 0.00 73 1007.4
20260506140205 18 192 1.6 3.2 0.00 0.00 0.00 73 1007.4
20260506135705 18 194 3.2 8.0 0.00 0.00 0.00 73 1007.3
20260506135205 18 214 1.6 4.8 0.00 0.00 0.00 73 1007.3
20260506134205 18 214 1.6 16.1 0.00 0.00 0.00 73 1007.2
20260506133705 18 211 4.8 12.9 0.00 0.00 0.00 73 1007.3
20260506133205 18 128 1.6 4.8 0.00 0.00 0.00 73 1007.1
20260506132205 18 184 1.6 4.8 0.00 0.00 0.00 74 1007.0
20260506131705 18 190 3.2 12.9 0.00 0.00 0.00 74 1007.0
20260506131205 18 160 1.6 4.8 0.00 0.00 0.00 74 1007.1
20260506130205 18 162 3.2 8.0 0.00 0.00 0.00 75 1007.0
20260506125705 18 187 3.2 8.0 0.00 0.00 0.00 75 1007.1
20260506125205 18 154 1.6 8.0 0.00 0.00 0.00 75 1007.1
20260506124706 17 206 3.2 11.3 0.00 0.00 0.00 75 1007.5
20260506124205 17 128 1.6 4.8 0.00 0.00 0.00 76 1007.5
20260506123706 17 130 3.2 9.7 0.00 0.00 0.00 76 1007.5
20260506123204 17 211 3.2 11.3 0.00 0.00 0.00 75 1007.5
20260506122705 17 199 1.6 4.8 0.00 0.00 0.00 76 1007.6
20260506122204 17 199 3.2 14.5 0.00 0.00 0.00 76 1007.6
20260506121705 17 333 3.2 11.3 0.00 0.00 0.00 76 1007.7
20260506121208 17 167 1.6 8.0 0.00 0.00 0.00 76 1007.8
20260506120205 17 145 1.6 4.8 0.00 0.00 0.00 77 1007.6
20260506115707 17 149 3.2 4.8 0.00 0.00 0.00 77 1007.7
20260506115205 17 213 3.2 11.3 0.00 0.00 0.00 76 1007.6
20260506114704 17 180 1.6 3.2 0.00 0.00 0.00 77 1007.5
20260506114205 17 180 1.6 4.8 0.00 0.00 0.00 76 1007.4
20260506113705 17 204 1.6 4.8 0.00 0.00 0.00 76 1007.6
20260506113204 17 172 1.6 11.3 0.00 0.00 0.00 76 1007.5
20260506112205 17 202 1.6 12.9 0.00 0.00 0.00 76 1007.6
20260506111704 17 168 1.6 8.0 0.00 0.00 0.00 76 1007.4
20260506111205 17 203 3.2 9.7 0.00 0.00 0.00 76 1007.6
20260506110705 17 157 3.2 4.8 0.00 0.00 0.00 76 1007.5
20260506110205 17 203 1.6 8.0 0.00 0.00 0.00 76 1007.4
20260506105705 17 135 3.2 4.8 0.00 0.00 0.00 75 1007.3
20260506105204 17 149 3.2 4.8 0.00 0.00 0.00 75 1007.3
20260506104705 17 152 3.2 4.8 0.00 0.00 0.00 75 1007.3
20260506104205 17 198 3.2 16.1 0.00 0.00 0.00 75 1007.3
20260506103705 17 174 3.2 9.7 0.00 0.00 0.00 74 1007.4
20260506103205 17 143 1.6 4.8 0.00 0.00 0.00 74 1007.7
20260506102704 17 136 3.2 4.8 0.00 0.00 0.00 74 1007.5
20260506102205 17 133 1.6 8.0 0.00 0.00 0.00 74 1007.5
20260506101705 17 144 1.6 4.8 0.00 0.00 0.00 74 1007.5
20260506101205 17 147 1.6 3.2 0.00 0.00 0.00 74 1007.3
20260506100205 17 43 1.6 4.8 0.00 0.00 0.00 74 1007.3
20260506095705 17 45 3.2 9.7 0.00 0.00 0.00 74 1007.3
20260506095205 16 154 3.2 4.8 0.00 0.00 0.00 74 1007.2
20260506094704 16 170 1.6 8.0 0.00 0.00 0.00 74 1007.1
20260506094205 16 165 1.6 3.2 0.00 0.00 0.00 73 1007.0
20260506093704 17 164 1.6 8.0 0.00 0.00 0.00 73 1007.2
20260506092205 16 170 1.6 4.8 0.00 0.00 0.00 73 1007.1
20260506091705 16 141 1.6 4.8 0.00 0.00 0.00 73 1006.9
20260506091204 16 230 1.6 4.8 0.00 0.00 0.00 73 1007.1
20260506090705 16 230 1.6 3.2 0.00 0.00 0.00 73 1007.2
20260506085705 17 224 1.6 4.8 0.00 0.00 0.00 71 1007.2
20260506085204 17 212 3.2 4.8 0.00 0.00 0.00 70 1007.3
20260506084705 17 159 1.6 4.8 0.00 0.00 0.00 70 1007.3
20260506084205 17 193 3.2 4.8 0.00 0.00 0.00 70 1007.4
20260506083705 17 192 1.6 4.8 0.00 0.00 0.00 70 1007.3
20260506083204 17 192 1.6 4.8 0.00 0.00 0.00 70 1007.4
20260506082705 17 192 1.6 4.8 0.00 0.00 0.00 70 1007.3
20260506081705 17 189 1.6 9.7 0.00 0.00 0.00 70 1007.2
20260506081205 17 205 0.0 4.8 0.00 0.00 0.00 71 1007.4
20260506080705 17 205 1.6 4.8 0.00 0.00 0.00 71 1007.4
20260506080205 17 205 1.6 4.8 0.00 0.00 0.00 70 1007.4
20260506072705 17 204 1.6 4.8 0.00 0.00 0.00 69 1007.5
20260506072205 17 204 0.0 4.8 0.00 0.00 0.00 69 1007.5
20260506071205 18 204 0.0 8.0 0.00 0.00 0.00 68 1007.6
20260506070203 18 202 0.0 4.8 0.00 0.00 0.00 68 1007.6
20260506062204 18 171 3.2 4.8 0.00 0.00 0.00 65 1007.8
20260506061704 18 132 3.2 8.0 0.00 0.00 0.00 65 1007.8
20260506061204 19 147 1.6 3.2 0.00 0.00 0.00 64 1007.8
20260506060203 19 137 3.2 8.0 0.00 0.00 0.00 64 1007.7
20260506051204 20 131 1.6 4.8 0.00 0.00 0.00 61 1008.0
20260506050703 20 130 3.2 4.8 0.00 0.00 0.00 61 1008.0
20260506044704 20 99 0.0 3.2 0.00 0.00 0.00 60 1008.0
20260506044204 20 99 0.0 3.2 0.00 0.00 0.00 60 1007.9
20260506043704 20 99 1.6 4.8 0.00 0.00 0.00 59 1007.8
20260506043204 20 70 1.6 4.8 0.00 0.00 0.00 59 1007.8
20260506042203 20 200 1.6 4.8 0.00 0.00 0.00 58 1007.8
20260506041204 20 137 1.6 8.0 0.00 0.00 0.00 57 1007.7
20260506040704 21 144 0.0 4.8 0.00 0.00 0.00 57 1007.7
20260506040204 21 143 3.2 4.8 0.00 0.00 0.00 56 1007.6
20260506035704 21 339 1.6 4.8 0.00 0.00 0.00 56 1007.7
20260506034705 21 147 1.6 4.8 0.00 0.00 0.00 54 1007.6
20260506034204 21 154 1.6 4.8 0.00 0.00 0.00 54 1007.6
20260506033704 21 158 3.2 8.0 0.00 0.00 0.00 53 1007.6
20260506033204 21 135 1.6 4.8 0.00 0.00 0.00 53 1007.6
20260506032704 22 135 3.2 8.0 0.00 0.00 0.00 52 1007.6
20260506032204 22 132 3.2 9.7 0.00 0.00 0.00 50 1007.5
20260506031704 22 170 3.2 11.3 0.00 0.00 0.00 50 1007.6
20260506031204 22 121 1.6 4.8 0.00 0.00 0.00 50 1007.5
20260506030704 22 109 3.2 8.0 0.00 0.00 0.00 50 1007.5
20260506025703 21 161 1.6 3.2 0.00 0.00 0.00 51 1007.6
20260506025204 21 217 1.6 4.8 0.00 0.00 0.00 54 1007.4
20260506024704 22 217 1.6 4.8 0.00 0.00 0.00 52 1007.4
20260506024204 22 120 1.6 4.8 0.00 0.00 0.00 50 1007.6
20260506023704 22 258 1.6 4.8 0.00 0.00 0.00 52 1007.6
20260506023204 22 210 1.6 4.8 0.00 0.00 0.00 51 1007.6
20260506022704 22 158 1.6 4.8 0.00 0.00 0.00 52 1007.7
20260506022203 22 153 1.6 11.3 0.00 0.00 0.00 51 1007.6
20260506021704 22 128 1.6 4.8 0.00 0.00 0.00 51 1007.6
20260506021204 22 140 1.6 3.2 0.00 0.00 0.00 52 1007.5
20260506020704 22 140 1.6 4.8 0.00 0.00 0.00 51 1007.6
20260506020204 22 133 1.6 11.3 0.00 0.00 0.00 52 1007.6
20260506015703 22 134 1.6 3.2 0.00 0.00 0.00 51 1007.5
20260506015204 22 135 1.6 11.3 0.00 0.00 0.00 51 1007.4
20260506013704 22 124 1.6 4.8 0.00 0.00 0.00 52 1007.4
20260506013203 22 139 1.6 3.2 0.00 0.00 0.00 53 1007.3
20260506012204 22 139 1.6 4.8 0.00 0.00 0.00 54 1007.2
20260506011703 22 129 1.6 4.8 0.00 0.00 0.00 53 1007.2
20260506011204 22 128 1.6 4.8 0.00 0.00 0.00 52 1007.1
20260506010703 22 129 1.6 4.8 0.00 0.00 0.00 53 1007.2
20260506010203 22 119 1.6 4.8 0.00 0.00 0.00 52 1007.0
20260506005204 22 117 1.6 4.8 0.00 0.00 0.00 52 1006.9
20260506004204 22 193 1.6 4.8 0.00 0.00 0.00 53 1006.8
20260506003703 22 128 1.6 4.8 0.00 0.00 0.00 51 1006.7
20260506003204 23 127 1.6 11.3 0.00 0.00 0.00 51 1006.6
20260506002704 23 104 1.6 4.8 0.00 0.00 0.00 50 1006.6
20260506001704 23 201 1.6 3.2 0.00 0.00 0.00 51 1006.3
20260506000704 23 223 3.2 8.0 0.00 0.00 0.00 49 1006.4
20260506000205 23 223 1.6 4.8 0.00 0.00 0.00 50 1006.3
20260505235203 23 223 0.0 3.2 0.00 0.00 0.00 48 1006.2
20260505234704 23 226 1.6 3.2 0.00 0.00 0.00 47 1006.1
20260505234204 24 226 0.0 3.2 0.00 0.00 0.00 47 1006.0
20260505233703 24 229 3.2 14.5 0.00 0.00 0.00 44 1005.9
20260505233204 24 193 1.6 4.8 0.00 0.00 0.00 44 1005.9
20260505232203 25 218 3.2 24.1 0.00 0.00 0.00 44 1005.7
20260505231704 24 246 3.2 12.9 0.00 0.00 0.00 45 1005.7
20260505231204 25 219 3.2 8.0 0.00 0.00 0.00 44 1005.6
20260505230703 25 218 3.2 8.0 0.00 0.00 0.00 44 1005.5
20260505225704 25 211 1.6 9.7 0.00 0.00 0.00 44 1005.4
20260505224703 25 208 1.6 8.0 0.00 0.00 0.00 44 1005.2
20260505224204 25 189 1.6 4.8 0.00 0.00 0.00 44 1005.2
20260505223204 25 203 3.2 8.0 0.00 0.00 0.00 44 1005.1
20260505222704 25 214 3.2 9.7 0.00 0.00 0.00 43 1005.0
20260505222203 25 213 3.2 4.8 0.00 0.00 0.00 43 1005.0
20260505221704 25 205 3.2 12.9 0.00 0.00 0.00 42 1004.8
20260505221204 26 166 3.2 9.7 0.00 0.00 0.00 42 1004.8
20260505220203 26 108 3.2 4.8 0.00 0.00 0.00 42 1004.7
20260505215703 26 103 3.2 11.3 0.00 0.00 0.00 41 1004.8
20260505214203 27 181 4.8 11.3 0.00 0.00 0.00 39 1004.6
20260505213703 27 156 1.6 24.1 0.00 0.00 0.00 35 1004.6
20260505212704 27 206 11.3 27.4 0.00 0.00 0.00 33 1004.6
20260505212204 27 194 9.7 19.3 0.00 0.00 0.00 34 1004.6
20260505210704 27 187 6.4 19.3 0.00 0.00 0.00 35 1004.3
20260505210204 27 181 3.2 14.5 0.00 0.00 0.00 36 1004.2
20260505205704 27 204 6.4 20.9 0.00 0.00 0.00 35 1004.3
20260505205204 28 210 6.4 12.9 0.00 0.00 0.00 33 1004.4
20260505204704 29 209 8.0 19.3 0.00 0.00 0.00 34 1004.3
20260505204203 28 220 1.6 29.0 0.00 0.00 0.00 34 1004.4
20260505203204 28 209 9.7 25.7 0.00 0.00 0.00 32 1004.8
20260505202704 28 234 4.8 22.5 0.00 0.00 0.00 34 1004.9
20260505202204 28 236 8.0 33.8 0.00 0.00 0.00 31 1004.7
20260505201703 28 214 11.3 37.0 0.00 0.00 0.00 30 1004.6
20260505201203 28 209 8.0 19.3 0.00 0.00 0.00 32 1004.5
20260505200704 28 212 12.9 41.8 0.00 0.00 0.00 30 1004.6
20260505200204 28 218 9.7 27.4 0.00 0.00 0.00 30 1004.5
20260505195204 28 213 9.7 24.1 0.00 0.00 0.00 31 1004.5
20260505194704 28 220 12.9 25.7 0.00 0.00 0.00 31 1004.9
20260505193705 29 196 8.0 19.3 0.00 0.00 0.00 32 1004.9
20260505193204 28 196 8.0 16.1 0.00 0.00 0.00 31 1005.0